Torna al catalogo

STARLINK-11289

AttivoComunicazioniVLEO
NORAD 60991·PAYLOAD·🇺🇸 United States

Lanciato Sep 5, 2024 da Cape Canaveral Space Force Station

Loading…

Prossimi Passaggi (prossime 24 ore)

TLE

AggiornatoSource: CelesTrak SupGP

Epoca: Sep 14, 2026, 14:54 UTC

1 60991C 24158B   26257.62131944  .00018609  00000+0  15313-3 0  2573
2 60991  53.1569  69.6898 0001114  92.3886 186.2926 15.69724832    17

Traccia STARLINK-11289 in tempo reale con AllMySat

Download on the App Store